Regional Weather Roundup
Issued by NWS

Home | Current Version | Previous Version | Graphics & Text | Print | Product List | Glossary On
Versions: 1 2 3 4 5 6 7 8 9 10 11 12 13 14 15 16 17 18 19 20 21 22 23 24 25 26 27 28 29 30 31 32 33 34 35 36 37 38 39 40 41 42 43 44 45 46 47 48 49 50
000
ASUS43 KOAX 301410
RWRNE

WEATHER ROUNDUP FOR NEBRASKA
NATIONAL WEATHER SERVICE OMAHA NE
900 AM CDT WED JUL 30 2014

NOTES: SATELLITE DATA IS BEING USED TO AUGMENT CLOUD COVER ABOVE
       12000 FEET.
       "FAIR" INDICATES FEW OR NO CLOUDS BELOW 12,000 FEET WITH NO
       SIGNIFICANT WEATHER AND/OR OBSTRUCTIONS TO VISIBILITY.

  * THESE STATIONS DO NOT REPORT WEATHER SUCH AS RAIN...SNOW OR FOG.

NEZ001>004-019>022-054>056-301500-
NEBRASKA PANHANDLE

CITY           SKY/WX    TMP DP  RH WIND       PRES   REMARKS
SCOTTSBLUFF    CLOUDY    66  59  78 N5        30.28R
ALLIANCE       PTSUNNY   67  55  65 CALM      30.27R
CHADRON        PTSUNNY   63  56  78 SW9       30.25S
KIMBALL        DRIZZLE   61  60  96 NE6       30.30R
SIDNEY         CLOUDY    64  61  90 E5        30.29S
$$

NEZ057>060-069>072-079>082-301500-
SOUTHWEST NEBRASKA

CITY           SKY/WX    TMP DP  RH WIND       PRES   REMARKS
NORTH PLATTE   PTSUNNY   68  59  73 CALM      30.22S
IMPERIAL       CLOUDY    64  60  87 NE3       30.24R
LEXINGTON      PTSUNNY   66  60  80 CALM      30.20S
MCCOOK         CLOUDY    64  62  93 N6        30.21R
OGALLALA       PTSUNNY   65  59  83 CALM      30.24S
$$

NEZ005>010-023>029-035>040-094-301500-
NORTH CENTRAL NEBRASKA

CITY           SKY/WX    TMP DP  RH WIND       PRES   REMARKS
VALENTINE      SUNNY     63  51  65 W7        30.22R
AINSWORTH      SUNNY     64  54  70 W5        30.22R
BROKEN BOW     SUNNY     66  60  81 CALM      30.21R
O`NEILL        SUNNY     65  57  74 CALM      30.19S
ORD            SUNNY     65  60  84 CALM      30.19R
THEDFORD       MOSUNNY   61  57  87 CALM      30.24R
$$

NEZ041-046>049-061>064-073>077-083>087-301500-
SOUTH CENTRAL NEBRASKA

CITY           SKY/WX    TMP DP  RH WIND       PRES   REMARKS
GRAND ISLAND   SUNNY     68  58  70 CALM      30.19R
AURORA         SUNNY     68  59  72 CALM      30.18S
HASTINGS       MOSUNNY   69  55  60 VRB3      30.18R
HEBRON         CLOUDY    66  58  76 NE3       30.16S
HOLDREGE       PTSUNNY   64  58  80 NE6       30.19S
KEARNEY *      MOSUNNY   70  57  64 E6        30.20R
YORK           SUNNY     66  59  77 NE3       30.18S
$$

NEZ011>018-030>034-042>045-301500-
NORTHEAST NEBRASKA

CITY           SKY/WX    TMP DP  RH WIND       PRES   REMARKS
NORFOLK        SUNNY     67  55  65 CALM      30.18R
ALBION         SUNNY     63  56  78 CALM      30.19R
BLAIR          SUNNY     66  56  71 NE6       30.16R
COLUMBUS *     PTSUNNY   57  55  94 CALM      30.18R
FREMONT        SUNNY     66  60  80 CALM      30.17R
TEKAMAH        SUNNY     66  58  75 N3        30.16R
WAYNE          MOSUNNY   62  57  85 CALM      30.18R
$$

NEZ050>053-065>068-078-088>093-301500-
SOUTHEAST NEBRASKA

CITY           SKY/WX    TMP DP  RH WIND       PRES   REMARKS
LINCOLN        SUNNY     68  57  68 N3        30.17R
OMAHA EPPLEY   MOSUNNY   65  58  78 NW5       30.16R
BEATRICE       MOSUNNY   68  59  71 E3        30.16R
FALLS CITY     PTSUNNY   70  58  65 N6        30.14R
NEBRASKA CITY  SUNNY     66  58  75 N3        30.16R
PLATTSMOUTH    SUNNY     65  58  76 CALM      30.16R
$$

NEZ044-045-051>053-067-301500-
OMAHA AREA

CITY           SKY/WX    TMP DP  RH WIND       PRES   REMARKS
OMAHA EPPLEY   MOSUNNY   65  58  78 NW5       30.16R
BLAIR          SUNNY     66  56  71 NE6       30.16R
FREMONT        SUNNY     66  60  80 CALM      30.17R
MILLARD        SUNNY     68  58  69 CALM      30.16R
OFFUTT AFB     SUNNY     67  66  98 CALM      30.15R
PLATTSMOUTH    SUNNY     65  58  76 CALM      30.16R
WAHOO          FAIR      66  59  78 N3        30.16R
$$


USA.gov is the U.S. government's official web portal to all federal, state and local government web resources and services.